Regional Weather Roundup
Issued by NWS

Home | Current Version | Previous Version | Text Only | Print | Product List | Glossary Off
Versions: 1 2 3 4 5 6 7 8 9 10 11 12 13 14 15 16 17 18 19 20 21 22 23 24 25 26 27 28 29 30 31 32 33 34 35 36 37 38 39 40 41 42 43 44 45 46 47 48 49 50

000
ASUS43 KTOP 240408
RWRKS

WEATHER ROUNDUP FOR KANSAS
NATIONAL WEATHER SERVICE GOODLAND KS
1000 PM CST TUE JAN 23 2018

NOTE:  "FAIR" INDICATES FEW OR NO CLOUDS BELOW 12,000 FEET WITH NO
SIGNIFICANT WEATHER AND/OR OBSTRUCTIONS TO VISIBILITY.

KSZ001>006-013>018-027>032-041>047-240500-
NORTHWEST KANSAS

CITY           SKY/WX    TMP DP  RH WIND       PRES   REMARKS
GOODLAND       CLEAR     20  14  77 W9        30.30F
HAYS           CLEAR     26  22  84 W10       30.32R WCI  16
HILL CITY      CLEAR     28  24  85 W6        30.32R
RUSSELL        CLEAR     28  25  88 W7        30.30R
$$

KSZ061>065-074>080-084>089-240500-
SOUTHWEST KANSAS

CITY           SKY/WX    TMP DP  RH WIND       PRES   REMARKS
DODGE CITY     CLEAR     26  17  68 NW12      30.34R WCI  16
ELKHART        CLEAR     31  18  57 NE7       30.34R
GARDEN CITY    CLEAR     23  16  74 NW12      30.34R WCI  12
GREAT BEND     CLEAR     28  24  85 NW9       30.32S
LIBERAL        CLEAR     18   9  68 NW7       30.35R
PRATT          CLEAR     27  19  72 NW9       30.33R
$$

KSZ066>073-081>083-090>101-240500-
SOUTHEAST KANSAS

CITY           SKY/WX    TMP DP  RH WIND       PRES   REMARKS
CHANUTE        CLEAR     24  19  81 CALM      30.29R
COFFEYVILLE    CLEAR     28  23  81 CALM      30.30R
HUTCHINSON     CLEAR     27  22  81 NW6       30.31R
MEDICINE LODGE   N/A     31  20  63 NW3       30.33R
NEWTON         CLEAR     30  24  78 W8        30.31R
PARSONS        CLEAR     23  20  88 CALM      30.30R
WICHITA INTL   CLEAR     30  22  72 NW7       30.31R
WICHITA JABRA  CLEAR     33  25  72 W9        30.30R
WICHITA MCCONL CLEAR     36  23  58 NW9       30.30R
WINFIELD       CLEAR     26  16  65 NW6       30.33R
$$

KSZ007>012-019>026-033>040-048>060-102>105-240500-
NORTHEAST KANSAS

CITY           SKY/WX    TMP DP  RH WIND       PRES   REMARKS
CONCORDIA      CLEAR     32  27  81 W12       30.27R WCI  23
EMPORIA        CLEAR     28  21  75 W8        30.28R
LAWRENCE       MOCLDY    26  24  92 CALM      30.26S
MANHATTAN      CLEAR     25  21  85 CALM      30.28R
MARYSVILLE     CLEAR     32  27  80 W5        30.25R
OLATHE IND     PTCLDY    26  23  88 SW5       30.26S
OLATHE EXE     PTCLDY    25  23  92 CALM      30.25S
SALINA         CLEAR     34  28  79 W12       30.30R WCI  25
TOPEKA BILLARD CLEAR     26  25  96 CALM      30.27R FOG
TOPEKA FORBES  CLEAR     27  24  89 W9        30.26R
$$



USA.gov is the U.S. government's official web portal to all federal, state and local government web resources and services.